Wind_Speed
47 43 39 40 39 38 40 44 41 39 47 49 44 45 47 45 44 42 40 38 36 33 32 33 32 32 32 28 28 28 27 31 32 33 35 36 38 37 33 27 27 25 24 26 24 22 19 19 20 18 16 11 6 4 4 3 2 1 3 5 5 5 2 2 3 3 1 4 7 4 3 6 3 4 5 4 7 6 4 7 6 8 10 7 5 9 12 16
46 41 40 41 40 37 36 42 42 39 47 50 48 47 47 47 44 43 41 39 37 34 34 35 33 32 30 27 27 27 28 32 33 36 39 37 37 37 34 28 26 25 24 25 25 23 18 18 20 20 17 9 5 4 4 2 2 1 2 4 4 0 4 6 6 5 4 4 4 4 2 5 2 2 5 5 7 9 7 8 9 9 10 12 10 9 14 15
46 41 40 40 41 40 35 39 41 38 45 49 48 48 49 48 46 45 43 40 38 36 36 35 34 32 30 28 27 27 29 28 26 35 41 38 36 35 32 26 26 26 24 22 21 21 17 18 20 20 15 7 5 5 5 5 3 2 1 4 2 4 6 6 5 6 6 4 3 4 2 3 4 1 3 5 8 8 9 9 10 11 11 13 13 12 15 14
45 40 41 41 40 42 38 39 40 36 42 49 47 48 50 48 47 46 44 41 39 38 37 36 35 33 31 29 29 29 27 19 21 34 39 36 35 33 29 25 26 25 23 19 19 21 16 16 21 19 14 6 5 6 6 7 6 3 3 3 2 3 3 6 5 5 5 4 4 3 1 2 3 4 6 7 8 7 9 9 9 11 11 15 14 15 17 16
42 38 40 40 38 40 39 39 40 35 38 49 49 45 48 48 47 47 44 42 41 39 37 36 35 35 33 32 31 30 24 10 18 33 34 33 35 33 30 26 27 26 25 23 22 23 16 14 18 16 13 6 5 6 9 10 7 4 4 2 4 1 1 6 4 4 3 4 3 3 2 2 1 5 9 10 9 4 2 2 4 6 7 14 15 16 18 17
40 37 38 38 36 38 39 37 40 39 35 45 51 45 47 48 47 48 45 43 43 40 38 37 37 36 35 34 32 30 22 5 10 29 32 33 36 35 32 28 29 27 25 24 23 23 16 16 17 14 11 7 7 7 6 7 7 6 5 4 2 1 2 5 3 3 3 3 3 3 4 5 5 7 8 12 14 7 4 2 2 1 5 11 13 15 18 17
40 38 35 35 36 38 39 36 38 41 35 40 52 48 46 49 48 49 47 44 44 41 39 39 38 38 37 35 30 25 22 7 7 27 32 33 35 34 34 30 29 26 22 20 22 23 19 19 17 14 11 6 10 8 2 4 6 7 5 7 6 3 2 3 2 3 3 3 4 4 6 7 7 7 4 10 15 11 12 12 5 2 6 11 12 14 16 15
40 37 34 33 33 35 38 37 36 38 32 34 49 50 46 47 49 49 48 45 44 42 40 41 40 41 39 36 28 20 22 11 5 23 31 31 32 33 33 32 30 26 22 20 22 23 20 20 18 15 12 6 9 9 4 5 5 8 5 6 6 4 4 1 1 2 2 3 4 4 7 8 7 7 7 12 16 11 15 18 12 6 5 9 12 14 16 16
38 35 34 32 32 33 36 37 35 34 31 28 36 46 46 47 49 50 50 46 45 44 42 43 43 42 40 35 25 16 20 16 7 20 30 29 30 31 31 32 30 26 25 22 21 22 20 21 20 16 11 6 10 10 8 8 4 8 8 5 5 5 6 3 4 4 2 3 4 5 10 8 4 7 10 14 15 11 12 16 15 12 8 8 11 15 17 17
37 35 34 33 33 34 36 37 34 33 34 27 22 33 44 49 50 51 53 47 45 45 43 45 44 43 38 31 23 12 20 24 12 21 32 30 30 30 30 30 29 27 26 24 22 23 21 20 20 15 9 7 10 10 10 8 2 4 6 4 5 7 6 5 7 7 5 5 6 8 11 8 3 3 6 5 6 9 11 12 13 13 12 10 11 14 16 17
36 35 35 33 31 32 37 38 34 32 35 31 20 22 36 49 51 51 52 50 47 45 44 46 45 45 37 29 24 11 19 28 15 24 33 29 31 32 31 32 32 30 26 24 23 23 21 17 18 13 7 9 10 8 8 7 4 5 4 3 7 9 9 8 9 9 8 6 7 7 11 11 4 5 9 5 3 6 9 11 11 13 12 11 12 13 16 17
34 33 32 30 27 27 33 37 35 33 32 31 23 18 31 47 50 50 52 51 49 47 46 48 47 46 35 27 27 13 20 30 18 27 34 28 32 31 30 31 32 30 24 24 22 21 19 16 18 11 6 11 10 6 7 9 6 4 3 3 6 7 9 11 9 8 7 6 6 3 9 12 9 10 14 13 10 5 6 10 11 12 12 12 13 14 16 17
33 32 31 28 26 23 27 34 35 33 29 29 24 17 24 38 47 50 51 52 51 48 48 49 49 45 32 25 29 17 20 31 22 30 36 29 30 28 26 28 27 24 22 23 21 20 18 16 17 11 8 9 7 5 7 10 6 5 4 3 3 5 7 9 9 7 7 6 7 4 7 9 10 15 15 12 11 7 7 9 10 12 12 12 14 15 17 17
35 34 31 26 25 23 25 31 34 35 31 28 26 21 19 28 44 50 51 52 50 49 49 51 51 44 30 22 27 21 21 30 25 32 38 32 33 31 29 30 24 21 21 21 21 21 18 17 17 12 9 7 8 9 8 8 6 5 5 2 3 5 3 6 6 7 7 7 9 7 7 8 7 6 9 9 8 7 8 9 10 11 12 13 14 16 17 18
36 34 31 25 21 21 23 26 32 37 36 31 30 27 20 22 38 51 52 50 49 51 51 53 51 44 29 17 21 23 25 30 26 35 42 35 36 34 31 31 25 23 22 21 21 20 18 18 15 10 9 9 11 10 6 6 6 5 4 4 5 5 2 5 4 6 5 4 12 11 6 7 9 3 7 4 7 7 9 10 11 12 13 14 14 16 16 17
36 34 30 25 21 19 21 24 28 35 37 35 33 30 23 19 29 46 52 50 50 52 50 47 47 40 23 13 20 26 27 27 27 39 41 34 35 32 29 29 25 24 21 20 20 17 16 16 12 10 10 9 8 6 4 5 5 5 5 5 7 6 4 3 3 5 5 3 11 14 7 2 6 5 4 1 5 7 10 11 11 12 12 13 13 15 16 17
33 32 29 26 23 18 21 24 27 35 35 34 34 32 26 18 22 41 52 51 51 54 50 47 48 35 14 12 23 29 29 25 28 39 36 30 32 29 27 26 24 24 20 18 17 16 16 13 11 9 6 6 7 6 5 6 5 6 6 6 6 7 5 3 3 4 6 5 9 13 11 6 5 6 4 2 3 6 8 10 11 11 11 12 12 14 16 17
31 32 31 28 23 18 22 24 26 35 39 35 33 32 27 19 18 36 55 55 49 49 44 43 45 22 6 18 27 32 33 27 32 39 32 29 29 28 28 24 23 24 18 15 14 14 13 10 9 5 4 7 8 7 6 6 8 6 7 6 6 6 8 7 3 5 8 7 8 11 12 11 10 11 12 8 6 7 8 9 10 10 9 10 11 14 15 17
31 31 31 27 23 22 26 26 25 33 41 38 34 33 29 24 18 22 48 61 47 33 22 32 40 13 6 29 33 33 34 31 37 38 31 31 30 28 26 21 23 25 18 12 10 12 11 7 6 5 6 9 8 9 8 8 9 7 7 7 7 6 8 8 3 6 7 6 8 12 12 11 11 12 15 14 10 10 11 11 10 10 9 9 11 13 14 18
31 29 28 25 25 27 29 30 28 30 38 38 35 34 24 16 12 10 25 54 53 37 26 46 53 17 11 33 33 34 34 32 38 37 33 34 32 31 28 24 24 21 14 10 9 12 11 6 6 7 9 12 12 13 14 12 10 8 8 7 8 7 5 5 5 6 5 5 8 12 13 13 12 11 14 16 11 10 11 13 14 13 12 12 12 13 14 16
31 28 26 26 25 26 30 32 31 29 33 35 34 30 18 13 11 7 5 33 52 45 36 58 57 15 14 35 38 40 38 31 33 34 32 34 35 31 28 27 22 16 16 15 12 10 10 8 8 10 12 14 15 16 16 14 10 9 8 5 6 7 4 3 5 6 5 4 7 11 12 13 13 11 13 16 12 11 14 14 15 16 15 14 13 14 15 16
31 29 27 27 24 25 28 29 31 30 29 31 29 23 18 20 20 5 7 10 36 37 35 55 46 15 21 34 34 38 37 27 27 30 30 34 35 28 26 26 18 14 17 15 12 8 8 9 11 13 13 15 15 15 14 14 11 8 6 5 6 6 4 2 5 6 5 4 6 7 9 11 12 13 14 17 16 16 17 15 16 16 15 15 14 13 13 16
30 30 29 27 25 23 23 24 28 29 27 27 24 21 19 22 27 16 9 3 20 29 39 53 39 25 32 33 30 34 32 26 25 29 33 35 32 27 27 23 14 13 15 12 11 10 7 8 14 16 15 15 15 14 14 13 12 9 7 7 6 6 6 4 5 7 6 5 5 6 7 9 11 12 13 18 20 20 18 16 16 16 16 16 15 13 13 16
29 31 30 27 26 23 21 22 24 24 24 24 20 20 19 17 26 22 6 7 4 19 41 52 38 31 35 34 38 37 30 26 26 31 36 35 31 25 23 22 15 10 13 15 15 12 7 8 17 19 16 17 15 15 16 12 10 11 11 10 6 7 7 3 3 5 6 6 5 6 7 8 11 14 13 15 19 21 21 19 17 16 17 20 19 18 20 21
28 30 30 28 27 26 24 23 24 24 26 25 20 20 19 15 21 20 3 6 3 10 32 41 29 27 32 33 38 36 27 23 26 36 39 34 31 24 19 23 17 11 14 17 16 11 8 13 20 18 15 18 15 13 16 13 9 11 13 12 9 6 6 3 3 3 5 5 3 3 6 4 5 10 11 10 14 17 19 20 19 17 18 22 23 24 26 26
26 28 30 29 27 29 26 22 26 28 25 24 22 22 23 21 23 20 4 4 3 6 22 30 24 25 31 31 38 35 21 17 24 39 40 31 31 26 18 17 12 13 17 14 10 5 5 15 19 16 14 16 14 12 14 14 10 10 9 12 12 7 4 4 4 3 4 2 2 2 5 5 3 5 6 7 10 14 15 16 18 19 19 20 23 27 29 28
25 26 28 29 29 31 26 21 27 31 26 24 23 23 23 22 26 22 5 3 5 6 15 23 22 28 31 34 44 29 11 18 24 33 39 28 27 25 17 14 9 14 16 11 7 3 6 15 16 17 16 13 12 11 12 15 12 5 3 9 13 8 5 5 4 5 3 4 2 3 3 6 7 5 6 7 9 12 13 13 14 18 20 20 22 27 31 30
23 25 27 29 28 29 25 23 29 29 24 24 26 24 22 23 27 21 5 3 5 7 9 12 17 30 36 41 43 22 19 32 20 23 38 29 25 23 16 15 12 15 17 11 7 3 7 15 15 16 15 11 11 11 13 17 11 1 4 6 9 7 5 4 4 5 2 4 5 5 3 5 7 4 5 8 10 12 14 15 14 17 20 21 23 28 32 33
24 25 27 27 27 27 24 22 24 20 17 23 28 25 22 24 23 13 2 4 3 4 4 10 15 27 36 36 31 21 26 28 13 21 36 26 22 18 12 17 17 16 14 7 5 2 4 11 15 16 12 9 11 10 14 17 8 2 5 6 5 3 2 2 4 4 2 4 7 5 5 4 7 5 5 7 10 12 12 12 14 18 21 21 24 30 34 34
25 26 28 28 28 27 22 20 20 15 19 29 31 28 27 25 16 7 5 4 2 1 4 11 15 23 32 25 15 16 19 14 17 28 25 16 18 11 8 17 18 14 8 3 3 2 3 7 11 10 8 10 11 6 9 12 9 9 8 7 6 3 2 1 2 1 3 6 6 7 8 4 5 5 5 6 5 7 9 10 12 16 19 20 21 26 30 30
25 27 28 29 28 27 24 24 21 17 24 34 35 34 29 17 5 5 6 1 2 2 2 8 14 22 28 19 11 17 16 12 21 24 13 11 15 12 12 11 10 10 6 3 3 2 6 8 7 4 4 9 11 6 3 7 11 10 7 6 5 3 2 2 2 1 5 6 2 5 9 9 8 4 3 2 1 4 8 8 9 10 14 17 17 21 25 26
26 28 28 28 28 27 27 28 26 22 25 34 39 33 19 7 3 5 4 1 2 4 2 5 12 19 24 19 14 17 14 13 22 20 12 10 10 12 13 9 8 9 7 8 6 4 7 6 4 5 4 9 11 8 3 4 6 7 6 7 6 4 2 5 5 3 7 5 2 3 4 7 10 7 8 9 7 9 9 8 10 10 12 13 9 11 17 20
26 27 27 28 27 27 27 28 31 28 25 31 33 18 5 3 5 3 3 3 1 3 1 4 10 21 24 18 13 15 12 13 21 19 13 12 11 13 13 10 10 4 4 10 7 5 5 1 2 6 6 11 12 10 6 4 5 6 7 7 6 5 4 7 7 5 5 2 4 4 2 6 8 5 11 15 12 12 12 12 13 13 12 10 7 9 12 14
27 26 26 28 27 26 27 30 34 31 29 31 22 6 2 4 3 2 3 3 2 5 5 4 9 21 24 16 13 17 12 12 20 18 13 13 11 12 9 10 13 5 5 9 5 6 8 2 7 10 7 11 14 10 8 8 6 7 6 6 6 6 5 5 5 5 3 3 4 4 2 5 3 1 4 8 7 9 9 10 10 11 13 15 17 19 18 16
27 26 25 25 25 26 26 31 36 34 33 28 12 2 5 4 3 3 3 4 3 6 6 5 7 16 18 13 15 18 9 10 21 18 14 14 11 12 10 11 19 14 9 10 5 7 8 2 6 7 5 13 16 10 11 13 7 7 7 8 8 7 5 2 1 1 0 1 4 6 4 5 3 4 6 6 6 9 9 8 9 10 13 16 20 23 22 21
25 25 25 23 23 25 24 28 37 39 35 23 6 3 5 1 1 4 3 5 5 7 9 7 7 12 13 9 14 17 6 8 20 15 11 14 11 14 13 10 19 18 12 11 5 7 9 2 4 5 4 13 14 10 15 15 7 6 9 9 4 1 4 4 2 2 1 6 5 6 4 5 3 7 9 9 8 9 9 8 9 10 9 10 14 18 19 18
24 23 23 22 21 22 21 26 38 40 31 16 4 4 3 2 1 3 3 5 6 8 9 7 5 5 8 6 11 17 12 10 17 12 8 11 10 14 15 11 19 20 16 13 5 7 10 3 2 4 6 9 5 5 14 11 3 5 9 8 5 4 3 4 3 2 3 7 4 5 7 5 3 4 6 12 13 11 11 9 9 9 9 9 12 13 11 10
24 21 20 20 21 21 19 25 35 32 18 7 4 3 2 1 3 1 1 3 8 8 6 5 2 1 3 5 7 16 18 14 14 12 10 9 7 14 16 12 20 25 23 19 8 6 9 5 2 2 5 7 3 5 11 7 1 2 4 6 5 2 4 5 4 3 4 7 5 4 7 7 7 5 4 9 14 13 11 11 10 10 9 9 10 9 7 9
25 18 12 15 21 22 19 22 29 25 9 1 4 4 2 2 3 2 4 1 4 7 6 5 2 3 1 5 7 14 17 16 15 13 10 7 7 17 20 13 17 25 27 23 12 6 8 6 2 2 3 7 5 6 9 8 4 1 1 6 6 4 3 5 5 3 3 6 5 3 4 5 8 9 7 8 10 9 9 8 10 12 11 10 8 7 8 11
23 13 6 13 22 22 21 22 23 17 6 3 3 2 3 4 3 4 6 4 3 2 5 5 3 2 1 3 6 10 11 15 17 13 8 10 10 17 22 16 14 21 26 25 16 8 7 5 5 5 4 6 8 7 9 12 10 6 6 9 7 3 1 2 5 4 3 5 5 5 6 3 3 7 10 12 9 8 7 4 5 8 8 8 7 7 9 11
19 8 5 16 23 23 23 19 13 8 3 4 4 2 3 4 4 5 6 6 3 5 3 3 5 4 3 4 5 7 8 12 16 11 7 13 12 10 20 23 18 18 20 20 15 8 6 6 8 8 6 8 7 3 2 5 9 10 9 8 9 7 4 3 6 6 5 4 3 4 6 3 3 4 7 10 9 6 4 4 5 5 6 6 6 7 9 10
13 5 8 19 24 24 22 12 5 5 4 5 5 4 5 4 4 6 5 5 2 3 5 3 5 5 3 3 3 5 7 9 13 11 6 15 16 10 20 33 28 23 18 11 8 3 2 5 8 7 6 6 3 3 3 3 3 8 9 8 9 8 8 8 7 4 4 3 1 3 7 3 3 4 5 6 4 2 2 1 3 2 2 3 4 7 9 8
11 10 11 20 26 25 17 6 4 6 5 3 3 5 6 4 4 7 6 3 2 1 2 2 2 4 4 3 3 5 6 7 13 13 8 14 17 10 21 36 33 24 16 9 7 4 3 5 7 6 4 3 5 3 0 3 1 7 11 11 11 11 12 9 3 1 4 5 4 4 8 4 3 1 1 2 2 3 2 1 1 1 4 6 7 8 8 7
17 16 11 19 26 21 10 5 6 7 5 3 4 5 6 3 4 7 7 6 5 3 2 1 1 2 4 5 5 5 4 4 10 11 6 10 13 10 23 39 34 21 14 12 12 9 5 6 7 7 5 4 4 4 5 4 6 9 10 12 12 14 13 5 1 1 4 6 7 7 9 6 3 1 1 0 2 2 2 2 2 4 6 6 7 8 8 6
18 13 9 17 24 16 5 2 4 6 5 4 4 6 6 4 5 8 8 8 8 5 3 3 2 2 2 5 7 7 6 2 4 7 4 5 6 8 24 38 32 21 17 18 19 12 6 6 7 8 9 9 9 7 7 7 8 6 8 11 12 12 13 7 2 4 6 6 7 8 9 5 1 1 3 4 5 4 3 3 3 5 6 6 6 8 9 7
11 6 6 11 14 11 6 4 1 4 6 5 3 4 7 5 5 8 9 8 9 8 5 2 1 1 2 6 6 6 8 3 1 4 6 6 2 5 25 37 30 22 20 22 25 15 3 4 7 7 9 10 7 4 6 8 8 9 12 13 11 11 12 8 4 8 10 6 6 10 14 11 4 5 7 7 6 6 5 5 5 7 8 8 7 9 9 8
7 5 7 9 8 7 7 5 3 4 7 8 5 4 9 9 6 7 10 8 10 11 7 3 3 1 3 8 6 4 8 3 2 3 5 7 3 5 23 30 24 24 21 20 25 16 2 5 10 10 12 10 5 6 10 12 12 15 15 14 14 15 14 10 10 14 12 7 10 15 19 18 10 8 10 10 9 8 6 7 7 6 7 7 8 8 8 8
4 6 12 13 8 5 8 8 9 8 8 10 7 5 10 12 8 7 9 9 11 12 7 4 8 7 6 6 4 4 7 2 2 3 2 5 5 8 18 18 15 24 22 14 18 13 2 7 13 12 14 11 4 7 13 13 13 15 17 17 17 18 18 16 16 17 13 11 14 13 14 18 14 9 10 9 9 9 8 9 9 7 6 7 8 8 7 7
3 7 13 13 6 7 11 10 10 9 8 8 6 5 8 10 10 9 7 6 8 11 10 6 10 12 10 8 5 5 8 6 4 4 3 6 9 10 11 10 11 21 20 9 11 12 6 7 12 13 14 12 5 8 14 15 12 14 18 21 20 20 21 20 20 21 18 18 20 14 10 15 13 9 10 9 9 9 8 9 9 9 8 8 8 8 8 8
4 6 10 11 6 7 12 9 7 7 7 7 6 6 7 8 11 11 7 8 8 8 11 11 10 12 12 11 9 9 10 10 9 9 9 9 11 10 10 8 8 17 18 9 8 14 10 9 12 12 11 11 7 6 10 13 13 14 17 20 21 21 21 21 22 22 18 20 23 18 15 15 9 7 11 12 10 7 6 7 9 11 11 10 11 13 12 12
7 5 7 8 6 6 9 8 7 7 7 7 7 7 7 10 14 11 7 11 12 9 12 16 14 11 11 12 14 16 15 11 7 8 13 13 10 9 9 10 11 14 14 10 9 12 10 8 10 10 9 10 9 7 6 6 8 11 15 18 22 22 20 20 20 16 14 17 20 19 17 14 6 8 12 14 11 7 7 10 10 11 16 18 18 18 18 19
10 6 4 5 6 7 8 7 8 8 7 8 9 9 9 12 14 10 7 10 15 16 16 16 13 9 8 13 19 18 14 12 10 7 13 16 8 4 4 10 19 18 13 11 9 9 9 6 6 9 9 6 8 9 7 6 4 8 13 20 25 24 19 16 15 16 18 18 16 15 14 8 6 10 13 14 14 13 15 16 14 14 18 20 19 21 24 27
Wind_Direction
219 213 207 213 220 222 221 217 220 217 211 209 204 209 212 207 207 207 205 204 202 203 200 195 193 196 197 193 192 195 189 180 181 186 191 199 200 194 189 183 178 178 185 185 176 171 167 177 189 190 192 196 193 163 141 110 87 250 246 224 231 226 183 84 72 66 65 60 58 75 181 222 195 167 216 237 231 231 204 200 204 216 212 215 209 141 163 194
217 211 205 211 218 223 222 216 219 218 209 208 203 205 211 208 205 205 203 201 199 198 196 192 191 194 192 188 188 188 183 180 187 193 196 198 195 192 190 185 179 178 184 187 187 185 180 180 182 187 195 206 217 211 201 162 102 203 255 239 240 110 71 58 60 58 50 52 51 64 134 224 241 147 189 225 231 216 219 217 203 217 210 215 229 165 174 194
217 210 204 207 214 221 222 215 218 221 210 206 204 204 208 207 204 203 201 198 196 194 192 190 190 190 186 182 179 179 177 179 194 201 200 197 194 192 189 184 179 179 182 186 191 190 187 188 190 190 190 200 208 208 218 208 193 149 213 251 240 75 78 71 58 53 42 24 31 59 74 227 239 216 185 229 248 226 230 230 202 215 201 199 221 186 177 188
215 209 207 208 212 219 221 217 217 222 212 204 204 202 204 205 202 202 199 195 193 191 190 189 188 185 180 174 170 171 169 178 209 206 202 197 192 187 182 179 178 179 181 183 190 187 185 194 198 196 191 191 185 202 217 203 203 167 191 244 79 90 106 89 62 46 33 3 5 25 6 234 224 222 223 235 251 236 235 238 217 227 202 189 209 191 182 187
208 206 208 208 208 214 221 220 217 219 210 203 204 202 203 204 200 200 197 194 192 189 189 188 185 181 174 168 166 163 158 173 217 206 202 194 186 183 180 175 175 178 181 184 187 183 180 189 190 192 197 190 157 202 218 196 197 190 196 208 74 123 126 93 78 37 15 346 338 316 313 325 331 236 233 234 242 250 282 251 218 248 203 195 212 197 191 192
203 203 205 202 200 209 216 219 218 220 214 203 204 201 201 204 200 199 197 193 191 188 189 188 182 177 170 168 164 160 165 168 202 200 197 187 183 184 183 176 175 178 180 187 188 180 176 179 178 181 190 187 171 191 211 177 185 208 208 201 168 218 107 96 106 30 358 318 319 321 338 322 286 260 238 231 239 258 308 293 200 262 176 198 218 204 204 201
201 201 201 196 196 202 208 213 216 219 221 206 201 200 197 202 202 198 197 193 191 189 189 187 179 174 167 165 164 168 192 198 164 193 190 181 181 183 186 181 178 176 175 183 183 180 179 179 182 184 182 184 183 182 176 150 189 221 214 200 197 187 159 102 102 14 351 298 317 324 315 294 273 282 261 234 242 250 262 261 247 229 172 199 223 217 218 215
192 192 194 193 195 199 202 209 210 213 221 205 198 200 195 200 203 198 197 193 189 189 188 186 177 172 168 164 167 183 204 206 175 191 184 180 179 174 178 181 181 181 182 183 179 181 180 181 186 186 185 183 173 164 157 164 195 224 219 195 186 184 205 172 188 309 330 274 302 301 290 285 273 293 283 254 252 243 246 253 247 230 200 205 220 223 220 217
185 187 193 198 201 202 203 208 210 208 213 206 198 198 192 197 203 196 196 193 187 188 187 184 176 172 171 167 172 191 200 201 206 186 179 181 178 169 174 179 182 186 187 186 184 183 177 182 186 183 189 176 163 158 173 191 195 216 220 196 183 204 211 213 246 249 223 254 290 285 285 283 271 295 279 257 251 230 225 242 242 230 224 212 207 216 218 216
189 194 200 207 207 207 207 210 215 209 212 217 204 196 188 192 201 195 193 193 187 188 187 183 176 174 174 170 179 196 192 194 200 179 176 178 176 174 178 180 182 183 182 181 189 187 179 186 184 175 170 155 169 164 177 201 138 172 209 209 218 239 232 226 246 243 240 255 254 265 285 283 255 273 265 245 223 211 207 221 230 222 218 214 203 208 214 215
193 199 202 204 203 203 207 215 220 214 218 222 211 201 187 186 197 196 192 195 190 186 187 182 176 176 175 176 187 195 187 190 187 174 175 177 177 175 178 183 184 179 176 180 188 187 183 184 174 165 157 158 169 160 173 191 128 127 174 217 232 244 243 234 239 241 248 250 228 248 286 277 236 220 246 254 219 204 201 205 212 211 206 207 206 206 211 213
193 196 196 193 192 194 201 212 217 214 219 221 213 203 186 182 192 196 192 195 192 185 185 181 176 177 175 183 194 197 190 189 180 173 176 178 177 174 176 182 183 179 179 184 187 187 188 184 177 171 155 160 156 148 184 179 153 144 172 229 217 227 241 229 223 222 227 224 192 225 285 265 227 222 240 242 240 225 195 202 205 206 203 201 203 207 217 217
189 190 190 189 193 194 196 204 209 210 213 217 214 200 191 186 189 195 193 195 194 186 182 180 177 175 174 186 196 201 195 188 183 176 174 174 174 173 177 178 179 185 189 189 187 188 189 184 181 167 139 161 149 129 159 157 159 168 182 246 211 226 240 208 197 190 205 209 166 172 267 257 234 229 224 215 220 215 196 205 206 204 203 200 201 209 221 223
186 186 187 191 199 199 197 202 207 209 209 215 218 205 194 188 186 192 195 195 193 187 183 181 176 174 177 187 194 201 193 186 186 178 173 171 171 173 176 173 174 184 189 189 187 185 184 177 175 162 145 154 131 127 140 147 175 173 160 216 228 238 202 146 176 187 202 201 168 186 248 255 252 206 172 182 201 202 209 215 209 203 204 204 205 212 220 225
183 182 183 189 193 189 189 196 204 209 212 218 222 215 204 194 185 188 195 195 191 188 185 180 173 171 179 188 192 196 187 183 186 179 176 173 173 174 173 174 175 177 180 181 176 170 169 169 166 151 138 137 135 146 152 149 175 180 173 200 209 230 175 133 165 192 216 205 180 199 238 245 252 194 121 175 209 206 230 230 217 211 207 208 211 216 218 222
180 179 183 187 180 174 174 182 197 207 214 218 222 223 212 200 184 186 195 193 188 190 184 176 170 167 175 182 184 189 182 180 181 178 178 175 174 170 168 175 177 175 175 174 171 164 163 163 152 136 136 148 158 164 163 159 172 187 206 215 196 207 214 161 163 203 233 216 192 212 236 213 229 216 129 227 232 212 234 240 228 220 212 212 213 216 218 219
181 183 186 185 177 178 176 179 195 204 213 218 220 225 216 198 184 189 194 189 185 188 181 174 171 169 179 174 174 182 178 173 173 174 174 175 174 167 164 169 172 174 171 170 174 171 168 161 146 143 155 178 185 179 174 187 190 183 203 226 206 205 227 203 155 190 208 218 216 221 237 246 233 230 214 223 228 214 232 243 237 228 219 217 216 219 223 222
181 182 183 182 181 188 186 184 195 203 211 218 219 222 219 207 185 183 185 182 178 179 178 176 172 170 199 181 175 178 175 167 169 171 169 172 175 170 167 164 168 173 160 157 168 164 160 156 153 159 186 190 190 190 185 194 204 193 190 209 211 208 234 236 178 160 183 212 235 227 233 244 249 254 252 234 203 215 237 244 243 237 228 222 222 225 230 230
175 177 179 181 185 186 185 185 192 203 209 216 219 219 222 220 211 189 174 169 168 171 170 173 175 179 196 180 174 170 171 166 167 170 166 169 174 173 171 165 169 168 151 149 168 163 149 142 174 183 181 190 189 191 199 210 220 219 195 202 216 213 232 237 166 146 181 207 229 234 238 243 241 245 254 244 211 217 239 244 245 242 236 229 227 228 232 239
173 174 175 180 185 185 183 181 186 201 207 213 217 215 222 215 217 258 180 166 170 176 166 168 178 184 154 165 162 162 166 167 168 170 169 169 171 172 174 170 169 171 166 160 162 167 161 158 195 189 177 182 182 190 207 220 232 238 217 211 224 230 235 216 158 137 174 220 231 235 242 248 246 239 249 247 218 207 230 238 242 243 242 237 232 233 237 246
178 174 174 179 178 177 179 179 182 193 202 210 213 208 209 189 183 301 231 170 173 178 170 170 176 167 135 157 161 163 162 164 169 170 171 169 167 169 174 175 174 184 185 162 139 152 178 193 194 183 175 177 184 195 210 221 228 235 224 211 221 232 241 185 156 151 164 228 242 237 243 250 252 247 248 248 232 222 231 236 239 242 244 241 235 235 239 250
180 176 175 178 170 165 169 172 178 183 190 200 204 200 195 200 200 214 345 171 171 173 171 173 173 148 146 160 163 161 155 156 164 167 170 169 171 173 174 180 184 188 184 160 138 152 195 209 189 176 176 182 193 201 213 222 222 227 221 215 229 220 217 188 165 173 181 223 249 244 251 258 257 253 248 246 244 243 240 237 238 239 241 239 238 237 236 248
179 177 176 178 175 170 167 167 174 176 178 182 187 194 195 203 209 217 325 358 165 169 170 173 171 149 150 157 161 160 155 156 160 167 171 170 177 179 173 182 188 180 182 170 163 173 195 207 187 179 180 188 198 202 212 220 217 228 222 216 232 205 208 228 184 183 198 228 274 288 277 272 263 256 250 242 242 247 243 238 238 235 236 237 238 238 234 244
178 179 178 178 176 176 176 180 182 180 179 178 177 192 196 198 208 218 290 3 160 173 173 174 169 156 155 160 169 168 160 161 161 166 172 171 175 174 174 182 178 170 184 183 182 187 190 180 179 182 186 191 198 200 207 215 213 224 224 222 230 203 213 246 151 178 215 226 256 286 278 268 251 241 241 235 232 239 241 238 234 227 232 241 242 242 244 248
177 179 179 177 176 177 179 182 188 192 190 188 187 196 204 204 206 210 222 3 326 171 172 173 167 162 162 164 171 167 156 162 168 168 170 173 172 166 172 181 177 176 180 182 187 197 189 164 171 185 192 194 199 200 202 206 213 221 222 225 235 224 217 209 151 193 249 232 198 260 273 269 240 232 235 231 225 230 231 227 224 220 228 240 244 247 251 253
176 177 176 176 178 180 179 174 181 188 184 182 186 194 205 209 205 203 177 12 275 167 164 170 171 172 168 162 163 161 155 160 168 169 167 171 173 164 165 176 185 187 172 170 189 206 184 168 176 190 191 193 201 205 200 200 217 227 212 213 228 242 226 207 206 230 266 283 143 223 270 277 295 268 246 232 229 232 228 220 217 218 221 228 236 244 249 250
174 174 173 175 179 182 173 154 164 175 170 167 173 181 189 197 200 198 182 350 232 168 155 165 172 175 170 161 159 159 153 146 153 170 170 169 174 168 168 171 180 186 164 153 187 192 164 174 183 190 188 194 202 203 197 197 213 231 153 186 211 225 218 213 230 239 282 336 262 201 244 278 285 273 243 227 229 234 231 227 221 218 218 216 223 237 244 245
170 172 173 175 180 183 174 150 154 165 168 167 169 173 175 184 191 185 178 288 183 142 147 157 164 170 164 161 162 149 133 145 144 173 173 168 170 174 185 181 171 174 166 163 188 165 160 176 182 186 190 198 201 199 188 190 207 238 96 161 192 210 212 207 236 246 297 337 262 203 155 260 271 256 229 223 224 231 232 234 231 224 221 217 220 233 242 245
165 167 171 175 176 180 179 168 164 168 171 167 167 171 168 169 172 157 169 256 159 113 143 150 159 163 157 160 165 142 138 150 139 163 173 171 169 176 191 184 172 163 165 173 183 156 167 181 180 182 191 198 197 199 190 193 202 141 126 131 133 165 172 181 249 261 271 268 255 220 170 242 275 265 234 224 224 231 235 237 235 230 226 221 222 232 241 244
165 164 167 172 172 173 172 169 174 174 168 164 163 167 160 151 148 146 206 227 130 122 148 154 160 154 152 159 165 148 147 145 130 149 166 166 163 163 147 166 170 157 146 80 98 130 122 157 180 187 205 201 182 176 187 186 159 129 135 126 117 134 125 152 250 287 264 255 248 214 198 221 278 265 225 223 220 220 232 240 239 235 233 227 222 228 236 239
162 163 167 171 169 171 167 161 165 162 158 159 158 158 151 137 131 179 192 183 90 193 156 157 160 151 155 159 151 153 148 133 139 145 149 151 161 158 135 149 166 151 143 108 112 148 138 154 181 171 191 183 151 112 105 142 144 146 153 146 136 134 126 195 200 169 245 253 242 198 200 208 234 241 200 204 171 203 230 242 240 238 240 238 228 225 231 233
160 161 166 170 168 171 170 165 163 158 153 150 150 153 147 128 202 194 168 161 170 185 190 178 167 157 160 159 151 154 143 141 155 152 150 160 166 169 164 169 163 150 173 176 154 150 157 169 162 127 171 183 151 132 119 128 160 178 170 166 174 156 157 225 216 213 242 237 134 149 183 220 242 249 241 246 242 228 231 238 243 248 251 251 237 222 226 230
159 161 164 167 168 170 172 170 166 164 161 151 146 153 159 146 181 172 144 175 151 133 174 224 178 160 161 163 155 150 136 146 161 158 158 159 159 177 182 174 166 158 175 165 142 138 155 186 165 150 190 201 181 167 165 160 176 184 176 178 188 168 178 226 222 226 244 204 134 121 120 257 265 255 239 248 252 241 237 240 249 255 255 260 262 253 249 246
161 160 162 164 165 168 172 172 168 168 170 162 152 156 194 161 155 100 141 169 88 118 153 220 183 164 167 169 156 151 144 152 161 158 158 157 161 177 174 172 183 183 121 143 147 162 162 201 194 175 172 188 198 197 160 136 155 183 189 192 196 193 205 228 223 223 218 109 132 148 168 244 259 44 245 255 259 250 249 252 261 266 258 260 266 268 270 266
163 163 162 159 159 164 170 171 170 170 169 163 156 178 180 166 152 143 156 158 136 138 162 223 197 168 170 168 159 161 155 156 161 158 164 168 169 174 168 179 187 179 148 154 169 173 169 191 175 163 157 174 190 200 147 133 157 188 187 204 215 221 233 256 277 236 95 62 184 184 227 253 277 324 288 264 251 243 247 246 245 255 256 258 264 268 270 272
158 163 163 160 157 157 163 168 165 166 166 159 151 203 181 91 147 167 152 149 154 146 157 203 214 178 173 165 164 166 141 146 160 156 167 171 170 177 173 179 186 183 174 164 158 176 178 162 128 124 145 177 188 196 163 154 167 179 187 206 204 251 257 239 205 90 346 273 223 174 234 259 267 280 254 229 237 236 230 228 222 233 241 242 254 261 264 268
151 155 158 163 164 158 156 161 160 160 160 159 177 188 141 16 179 163 128 142 151 145 154 187 212 180 170 165 169 163 140 142 161 155 163 171 174 179 174 177 186 189 190 178 165 186 175 111 80 148 150 169 176 175 176 177 157 159 191 190 118 39 313 250 238 177 205 255 242 178 225 240 228 249 212 205 226 232 222 220 218 222 219 225 249 256 256 262
151 145 145 157 170 169 156 152 158 159 152 151 193 178 101 71 171 177 349 140 147 147 160 182 173 62 165 171 169 161 151 153 167 159 159 175 180 177 174 177 185 191 194 188 177 180 165 110 41 211 148 147 132 152 181 199 188 164 199 166 148 226 222 200 230 234 209 238 259 216 220 233 227 222 171 192 218 230 231 229 226 220 207 215 242 247 253 271
150 137 133 156 166 170 164 151 156 161 150 151 199 185 136 123 153 245 305 353 139 164 172 167 120 30 187 177 159 165 163 160 166 162 166 184 177 177 180 176 183 192 193 192 190 171 164 140 128 202 139 134 154 184 189 189 178 325 263 184 197 247 223 200 215 238 231 235 260 244 210 229 223 209 198 193 195 205 211 215 226 228 216 212 226 239 261 276
147 125 117 168 166 167 165 152 151 157 166 227 205 163 132 123 149 231 275 321 39 136 172 164 139 97 158 183 167 176 171 159 165 170 171 178 169 175 183 178 175 185 189 196 196 164 163 168 136 141 143 151 178 202 200 191 182 180 194 194 196 201 257 250 225 225 242 242 254 252 242 251 187 186 203 200 191 198 201 202 224 219 202 202 220 247 268 278
143 119 126 168 170 167 159 148 148 162 189 217 210 158 134 133 144 186 249 282 7 38 39 119 141 136 134 167 187 202 178 158 169 175 165 176 178 176 185 184 174 171 181 193 192 172 172 166 138 143 171 185 192 195 182 198 196 192 194 195 194 192 191 223 221 209 217 242 262 265 269 282 126 174 202 198 208 227 233 247 236 200 171 184 220 254 272 281
138 117 147 167 172 168 158 148 161 184 198 212 210 193 165 148 143 162 199 253 281 8 12 53 127 139 141 170 209 218 189 166 172 177 171 183 190 188 184 184 176 166 171 176 166 154 90 117 130 140 165 172 136 68 39 355 236 203 203 205 201 197 197 210 221 194 187 222 311 307 284 293 120 168 181 174 187 156 109 230 239 184 170 213 243 261 271 275
119 109 140 168 169 162 160 160 173 189 213 210 169 174 176 147 136 163 167 181 203 179 5 0 123 151 165 184 215 220 198 177 178 181 176 182 193 192 178 180 176 168 171 160 138 134 90 114 123 111 115 108 77 79 58 19 335 207 208 210 205 205 205 209 230 161 187 210 198 238 258 240 121 135 147 116 127 107 104 172 195 298 287 283 276 264 260 257
114 107 125 163 164 162 170 178 177 195 211 176 141 164 182 174 154 164 163 165 171 156 165 224 243 190 165 160 186 222 224 194 189 195 185 176 188 177 172 180 181 173 173 168 161 171 168 146 138 130 142 152 138 176 202 201 219 216 208 205 207 211 207 192 44 265 231 220 198 219 248 235 138 104 312 291 205 191 163 173 226 263 271 277 267 249 237 227
115 102 115 156 165 176 211 235 185 198 197 185 194 185 180 204 198 178 177 179 175 172 179 191 218 233 173 156 176 216 242 252 188 198 190 161 176 167 171 180 184 179 179 171 160 161 163 156 159 157 162 177 185 192 191 190 202 212 209 205 202 206 204 190 176 227 234 219 190 212 252 258 124 170 223 212 219 222 177 170 228 239 237 243 234 221 214 208
125 106 116 153 174 198 242 294 255 183 187 189 209 202 193 216 215 184 186 187 175 177 190 198 200 240 203 181 174 206 232 266 40 200 184 149 142 178 173 179 185 181 171 158 152 152 151 169 179 184 182 185 186 155 118 127 155 187 204 201 188 190 204 202 194 220 227 223 209 224 242 248 217 191 207 203 207 220 193 174 198 221 230 235 219 208 209 205
140 143 149 156 175 210 235 253 226 181 184 184 178 182 196 211 213 179 183 189 177 175 189 215 200 209 222 195 171 189 217 243 341 219 173 133 100 169 172 178 183 171 157 150 156 157 144 186 187 201 202 197 185 144 133 138 168 186 188 189 184 185 199 202 206 219 215 211 235 233 229 238 232 186 196 202 195 208 206 184 189 210 226 220 199 197 207 207
130 149 167 166 159 186 204 210 207 197 188 188 187 184 196 207 207 185 182 186 180 175 178 209 205 209 231 214 187 177 185 197 292 219 156 125 132 151 165 174 174 161 155 158 166 161 159 199 193 201 206 206 198 167 159 160 180 183 178 186 187 187 198 207 217 227 213 208 238 233 212 227 230 197 194 195 187 202 198 177 185 199 202 198 186 177 189 211
112 133 167 177 170 183 192 190 190 194 194 191 195 207 208 208 207 203 187 171 185 187 184 202 205 200 214 228 232 207 176 169 198 212 192 156 155 153 159 168 173 165 161 166 176 171 184 207 196 197 206 209 198 179 176 173 177 180 183 190 189 189 200 207 219 229 220 221 238 239 220 229 227 207 207 197 187 193 170 158 185 195 184 183 190 191 200 224
144 128 163 186 201 192 191 186 172 188 203 196 206 226 225 222 218 214 191 172 184 185 189 212 217 195 198 211 222 230 211 191 186 187 180 164 162 169 168 166 173 172 169 171 178 179 191 205 191 188 206 208 194 193 193 182 179 185 189 191 190 193 201 208 219 224 218 227 240 244 250 251 232 206 216 207 193 176 155 171 190 190 192 204 219 228 234 246
159 139 145 179 203 187 183 185 177 189 197 191 207 218 217 229 227 219 203 195 195 181 183 205 216 200 194 203 215 228 227 220 217 192 182 179 177 181 183 171 163 165 170 175 178 181 192 201 182 181 209 210 181 173 186 169 170 190 195 193 192 196 203 208 218 220 209 222 235 239 249 252 208 180 208 212 205 203 216 222 211 208 221 229 231 238 251 262
175 162 128 163 191 179 179 184 182 195 202 198 210 212 212 229 229 221 217 207 204 203 197 199 206 200 192 206 218 224 222 231 269 268 202 201 217 279 253 173 164 166 171 175 178 180 185 190 173 180 206 202 150 149 148 114 135 206 206 197 194 198 204 211 223 224 215 218 224 227 235 232 166 179 203 211 212 217 224 227 227 229 233 236 242 253 265 267
Height
1409 1409 1412 1415 1419 1423 1426 1429 1432 1436 1440 1444 1448 1452 1456 1459 1462 1467 1471 1474 1477 1480 1484 1487 1489 1492 1494 1498 1500 1502 1504 1507 1509 1510 1511 1511 1513 1517 1520 1522 1525 1527 1530 1532 1535 1537 1538 1540 1542 1544 1546 1548 1549 1549 1550 1550 1550 1550 1549 1549 1548 1544 1544 1545 1544 1546 1547 1548 1550 1551 1553 1552 1552 1554 1555 1555 1556 1557 1557 1557 1558 1558 1559 1560 1561 1563 1563 1562
1407 1406 1409 1411 1416 1420 1423 1426 1429 1433 1437 1440 1445 1450 1454 1456 1459 1464 1469 1472 1475 1479 1482 1485 1488 1490 1494 1497 1499 1501 1503 1506 1509 1508 1507 1509 1512 1516 1519 1522 1524 1527 1529 1532 1534 1536 1538 1539 1541 1544 1546 1547 1548 1549 1550 1550 1550 1550 1549 1549 1546 1543 1545 1546 1546 1548 1548 1550 1550 1551 1553 1553 1552 1553 1555 1555 1554 1555 1556 1556 1557 1558 1558 1559 1560 1562 1563 1562
1404 1404 1405 1408 1413 1417 1420 1423 1426 1430 1433 1437 1442 1447 1451 1454 1457 1461 1466 1470 1473 1477 1480 1483 1486 1489 1493 1496 1499 1501 1503 1507 1508 1505 1505 1508 1512 1516 1519 1521 1524 1526 1529 1532 1534 1536 1538 1539 1541 1543 1546 1547 1548 1549 1549 1550 1550 1550 1551 1551 1547 1545 1547 1548 1549 1550 1551 1551 1551 1552 1553 1553 1553 1554 1554 1554 1553 1553 1553 1553 1555 1556 1557 1558 1559 1561 1562 1562
1400 1401 1402 1405 1409 1413 1417 1420 1423 1427 1430 1434 1439 1444 1448 1451 1454 1458 1464 1468 1472 1475 1479 1482 1484 1488 1492 1495 1499 1500 1504 1509 1505 1502 1504 1508 1512 1515 1518 1521 1523 1526 1528 1531 1534 1536 1538 1539 1541 1543 1545 1546 1547 1548 1548 1549 1549 1549 1550 1550 1548 1547 1548 1550 1551 1552 1553 1553 1552 1552 1553 1553 1553 1554 1554 1554 1553 1552 1550 1551 1552 1553 1555 1556 1557 1559 1560 1561
1397 1398 1400 1402 1405 1410 1414 1417 1420 1425 1427 1431 1436 1441 1445 1447 1450 1455 1462 1466 1470 1473 1477 1480 1483 1487 1492 1495 1499 1500 1505 1508 1501 1499 1504 1507 1511 1514 1517 1520 1522 1525 1527 1530 1532 1534 1537 1539 1540 1542 1544 1545 1547 1548 1547 1547 1549 1549 1548 1548 1549 1549 1549 1551 1552 1553 1554 1554 1553 1553 1552 1552 1553 1553 1553 1553 1553 1550 1549 1550 1551 1552 1553 1554 1556 1558 1559 1560
1394 1394 1396 1398 1401 1406 1411 1414 1418 1422 1424 1427 1433 1438 1442 1444 1447 1453 1459 1464 1468 1472 1475 1478 1482 1487 1491 1495 1498 1499 1502 1502 1497 1498 1502 1505 1509 1513 1517 1519 1521 1524 1526 1528 1531 1533 1536 1538 1539 1541 1542 1543 1545 1546 1546 1547 1549 1549 1548 1548 1549 1549 1549 1552 1553 1553 1554 1554 1553 1553 1553 1553 1553 1552 1552 1552 1551 1549 1549 1550 1551 1552 1553 1553 1555 1557 1558 1559
1389 1391 1394 1395 1397 1403 1408 1412 1416 1419 1422 1425 1429 1434 1438 1441 1445 1450 1457 1462 1466 1470 1473 1477 1481 1486 1490 1494 1498 1499 1498 1497 1495 1498 1501 1504 1508 1511 1516 1519 1520 1523 1526 1528 1530 1532 1535 1536 1538 1539 1541 1542 1543 1545 1546 1547 1549 1549 1547 1548 1549 1550 1550 1552 1553 1553 1553 1554 1554 1553 1553 1553 1552 1551 1550 1550 1550 1550 1550 1550 1551 1552 1553 1554 1554 1555 1557 1558
1386 1389 1393 1394 1397 1401 1406 1411 1414 1417 1421 1422 1426 1430 1434 1439 1443 1447 1454 1460 1464 1468 1471 1475 1480 1484 1489 1492 1495 1497 1497 1496 1496 1497 1500 1504 1507 1509 1514 1518 1520 1523 1526 1528 1529 1531 1534 1535 1537 1538 1540 1540 1541 1544 1547 1548 1549 1548 1547 1548 1549 1550 1550 1551 1552 1553 1553 1554 1554 1554 1553 1551 1551 1551 1550 1549 1548 1549 1549 1549 1551 1552 1553 1554 1554 1555 1556 1557
1385 1387 1391 1394 1396 1400 1404 1409 1412 1415 1419 1421 1423 1426 1431 1436 1440 1445 1451 1457 1462 1466 1469 1474 1478 1483 1487 1490 1494 1495 1493 1494 1495 1497 1500 1503 1506 1509 1512 1516 1520 1523 1525 1528 1530 1531 1532 1534 1536 1538 1539 1540 1541 1544 1546 1547 1548 1547 1547 1548 1549 1550 1550 1551 1551 1552 1552 1553 1553 1553 1551 1550 1550 1551 1548 1545 1546 1548 1548 1548 1549 1551 1552 1553 1554 1555 1555 1557
1383 1386 1390 1393 1395 1398 1402 1406 1410 1414 1417 1420 1422 1424 1427 1432 1437 1443 1449 1455 1460 1464 1468 1472 1477 1482 1486 1489 1493 1492 1490 1492 1495 1496 1499 1502 1505 1508 1512 1516 1519 1522 1524 1527 1530 1531 1531 1532 1535 1537 1539 1541 1542 1544 1546 1546 1546 1547 1547 1548 1549 1549 1550 1550 1551 1551 1551 1552 1552 1552 1550 1548 1550 1551 1547 1543 1544 1546 1546 1547 1548 1549 1551 1552 1554 1554 1555 1556
1381 1385 1388 1391 1393 1396 1400 1404 1408 1412 1415 1418 1421 1422 1423 1428 1435 1441 1447 1452 1457 1462 1466 1470 1475 1480 1484 1487 1489 1488 1488 1492 1494 1495 1499 1502 1504 1507 1510 1515 1518 1520 1523 1527 1529 1530 1531 1532 1534 1537 1538 1540 1542 1544 1546 1546 1546 1547 1548 1548 1549 1549 1549 1549 1549 1550 1550 1550 1550 1551 1549 1548 1549 1549 1546 1543 1544 1544 1545 1546 1547 1548 1550 1551 1552 1553 1554 1555
1380 1383 1386 1388 1390 1393 1398 1402 1406 1410 1414 1417 1419 1421 1422 1426 1432 1439 1445 1450 1455 1459 1464 1469 1474 1478 1484 1487 1487 1487 1488 1491 1493 1495 1498 1501 1505 1508 1511 1515 1517 1520 1523 1526 1528 1530 1531 1532 1534 1536 1536 1538 1541 1544 1545 1545 1546 1547 1548 1548 1547 1547 1547 1546 1547 1548 1549 1549 1548 1551 1551 1546 1545 1544 1542 1543 1543 1543 1545 1546 1546 1547 1549 1550 1551 1552 1553 1554
1378 1381 1384 1386 1389 1392 1396 1400 1404 1409 1413 1415 1418 1421 1423 1426 1431 1437 1443 1447 1452 1458 1463 1468 1472 1478 1483 1484 1484 1486 1487 1490 1492 1494 1497 1501 1505 1509 1512 1515 1519 1522 1524 1526 1527 1528 1529 1531 1534 1535 1537 1538 1540 1543 1543 1544 1547 1546 1547 1547 1547 1548 1545 1542 1545 1547 1547 1548 1547 1551 1553 1543 1536 1537 1538 1540 1541 1543 1544 1545 1545 1546 1547 1548 1549 1550 1551 1552
1377 1380 1382 1385 1387 1391 1395 1398 1403 1407 1411 1414 1417 1420 1423 1427 1431 1435 1441 1445 1450 1457 1461 1465 1471 1477 1481 1481 1482 1485 1486 1489 1492 1493 1496 1500 1504 1507 1511 1514 1518 1521 1523 1525 1525 1527 1529 1531 1533 1535 1537 1538 1540 1542 1542 1544 1546 1544 1546 1548 1547 1549 1546 1541 1543 1545 1546 1547 1546 1550 1553 1543 1534 1533 1536 1539 1540 1542 1543 1543 1544 1545 1545 1546 1547 1548 1549 1550
1375 1378 1381 1384 1386 1390 1393 1397 1401 1406 1410 1413 1416 1419 1423 1427 1429 1433 1438 1443 1449 1455 1459 1463 1467 1473 1478 1480 1481 1483 1485 1487 1489 1492 1495 1498 1501 1505 1510 1513 1516 1518 1521 1523 1524 1527 1529 1531 1533 1535 1538 1539 1540 1541 1540 1542 1543 1543 1547 1549 1546 1547 1546 1543 1544 1544 1545 1546 1545 1548 1548 1542 1536 1534 1536 1539 1540 1541 1542 1542 1543 1543 1544 1545 1545 1546 1547 1548
1374 1377 1380 1383 1386 1389 1392 1396 1400 1404 1408 1412 1416 1418 1422 1426 1428 1431 1436 1442 1449 1452 1457 1462 1465 1469 1473 1476 1478 1481 1483 1485 1488 1491 1495 1498 1501 1505 1509 1513 1515 1517 1520 1522 1524 1526 1528 1531 1533 1535 1537 1539 1539 1539 1539 1542 1543 1543 1544 1543 1543 1546 1546 1544 1544 1543 1543 1544 1544 1545 1542 1539 1536 1534 1536 1537 1538 1540 1540 1540 1541 1542 1543 1543 1544 1544 1545 1546
1374 1377 1380 1383 1386 1388 1391 1394 1398 1402 1406 1410 1414 1417 1421 1423 1426 1431 1435 1441 1446 1449 1455 1460 1463 1468 1471 1471 1474 1477 1480 1483 1487 1490 1495 1499 1502 1505 1508 1511 1514 1516 1519 1522 1524 1526 1528 1531 1533 1535 1537 1537 1536 1536 1542 1547 1544 1541 1542 1539 1538 1541 1543 1543 1543 1543 1543 1543 1543 1542 1540 1537 1535 1533 1534 1536 1537 1538 1539 1539 1539 1540 1541 1542 1542 1543 1543 1544
1373 1376 1380 1383 1385 1386 1389 1392 1396 1401 1405 1409 1413 1417 1420 1423 1426 1430 1432 1437 1445 1451 1456 1459 1461 1465 1466 1466 1467 1472 1477 1481 1485 1489 1493 1498 1502 1505 1507 1510 1513 1516 1519 1522 1525 1526 1529 1531 1533 1536 1537 1536 1534 1535 1542 1544 1536 1535 1540 1540 1537 1540 1542 1539 1539 1541 1541 1542 1542 1540 1539 1537 1534 1532 1533 1534 1535 1536 1537 1538 1538 1538 1540 1540 1541 1541 1542 1542
1373 1376 1379 1382 1383 1385 1387 1391 1394 1399 1403 1407 1411 1416 1420 1423 1425 1426 1425 1427 1433 1439 1443 1448 1453 1453 1452 1456 1462 1469 1475 1479 1483 1488 1492 1496 1501 1505 1508 1511 1513 1515 1518 1521 1525 1526 1528 1532 1534 1536 1536 1535 1533 1533 1536 1534 1528 1529 1533 1536 1536 1539 1538 1534 1535 1538 1539 1541 1541 1538 1536 1534 1533 1532 1531 1531 1532 1533 1535 1535 1536 1537 1538 1539 1539 1539 1539 1540
1373 1376 1378 1380 1382 1383 1386 1390 1393 1396 1401 1405 1409 1414 1419 1422 1425 1426 1422 1418 1420 1423 1427 1433 1441 1445 1446 1452 1461 1467 1473 1479 1482 1486 1490 1493 1498 1503 1508 1511 1514 1516 1517 1519 1524 1525 1527 1532 1533 1532 1532 1531 1530 1530 1530 1527 1526 1527 1530 1533 1533 1535 1534 1530 1533 1537 1538 1540 1539 1535 1533 1531 1530 1529 1528 1529 1530 1530 1532 1533 1534 1535 1536 1536 1537 1537 1537 1537
1372 1375 1378 1380 1381 1384 1387 1390 1393 1396 1400 1404 1408 1412 1416 1419 1425 1426 1421 1418 1421 1424 1426 1430 1438 1446 1449 1452 1456 1459 1467 1477 1481 1485 1489 1492 1496 1501 1504 1507 1509 1512 1513 1516 1522 1526 1527 1529 1528 1526 1526 1528 1528 1528 1528 1527 1528 1530 1530 1533 1534 1534 1534 1531 1533 1537 1538 1541 1538 1532 1532 1529 1527 1527 1526 1526 1527 1527 1528 1529 1530 1531 1533 1534 1534 1534 1535 1535
1372 1375 1378 1380 1382 1385 1387 1391 1393 1395 1399 1404 1408 1410 1414 1417 1422 1425 1423 1420 1424 1428 1431 1436 1443 1448 1451 1454 1457 1459 1464 1473 1480 1485 1487 1491 1495 1496 1498 1502 1504 1507 1510 1515 1520 1526 1529 1526 1524 1524 1524 1526 1527 1527 1529 1529 1530 1533 1532 1534 1535 1533 1533 1534 1535 1536 1538 1539 1535 1531 1532 1529 1524 1524 1524 1524 1524 1523 1525 1526 1527 1528 1529 1530 1531 1532 1533 1533
1372 1375 1378 1381 1383 1386 1389 1392 1395 1396 1400 1404 1407 1410 1413 1416 1420 1426 1425 1421 1423 1428 1430 1435 1441 1444 1448 1453 1458 1462 1465 1469 1475 1481 1484 1488 1492 1493 1496 1499 1502 1506 1509 1512 1515 1522 1526 1522 1520 1522 1524 1525 1526 1528 1530 1529 1531 1533 1532 1534 1534 1531 1533 1535 1535 1537 1537 1536 1534 1533 1534 1529 1523 1522 1520 1520 1521 1520 1522 1523 1524 1525 1526 1527 1528 1529 1530 1530
1372 1375 1379 1382 1385 1388 1391 1394 1395 1397 1401 1404 1408 1411 1413 1416 1420 1426 1429 1426 1425 1425 1427 1432 1437 1440 1441 1445 1453 1459 1464 1468 1472 1477 1482 1485 1489 1494 1496 1497 1503 1508 1509 1510 1513 1517 1520 1518 1518 1521 1522 1523 1525 1527 1527 1530 1533 1532 1529 1531 1531 1529 1533 1534 1534 1536 1535 1535 1535 1535 1536 1527 1518 1518 1515 1514 1517 1517 1518 1520 1521 1522 1523 1524 1525 1526 1526 1527
1372 1376 1379 1382 1386 1389 1391 1394 1395 1396 1400 1404 1408 1411 1413 1416 1419 1426 1431 1432 1428 1425 1428 1433 1436 1438 1440 1444 1451 1457 1463 1468 1471 1474 1480 1483 1486 1490 1494 1497 1502 1507 1509 1510 1513 1516 1518 1516 1517 1520 1520 1521 1524 1525 1525 1529 1532 1530 1527 1528 1528 1528 1531 1533 1535 1537 1537 1537 1535 1536 1539 1525 1508 1511 1512 1509 1511 1512 1513 1515 1516 1518 1519 1521 1522 1522 1523 1523
1372 1376 1379 1382 1385 1387 1390 1392 1393 1396 1400 1404 1407 1410 1413 1416 1420 1427 1434 1437 1430 1421 1422 1429 1431 1434 1438 1444 1451 1458 1465 1469 1472 1475 1478 1484 1486 1487 1492 1496 1498 1502 1506 1510 1514 1517 1516 1515 1516 1519 1520 1522 1524 1525 1525 1527 1531 1529 1523 1525 1527 1528 1532 1534 1536 1538 1538 1538 1535 1536 1541 1531 1513 1510 1509 1508 1509 1508 1508 1510 1511 1514 1515 1516 1517 1517 1518 1519
1372 1375 1379 1382 1384 1386 1389 1390 1392 1395 1398 1401 1404 1408 1413 1416 1421 1429 1437 1438 1426 1414 1416 1423 1425 1427 1433 1441 1446 1454 1460 1464 1471 1477 1478 1482 1486 1487 1490 1493 1496 1499 1501 1508 1516 1515 1512 1514 1516 1517 1520 1523 1524 1524 1523 1525 1530 1529 1522 1524 1529 1530 1533 1535 1536 1539 1537 1536 1536 1534 1539 1540 1528 1515 1508 1507 1509 1508 1507 1508 1507 1508 1509 1510 1511 1511 1512 1515
1371 1375 1379 1381 1383 1386 1388 1390 1392 1395 1397 1399 1402 1407 1412 1415 1421 1432 1441 1435 1417 1409 1413 1419 1423 1426 1432 1440 1443 1447 1450 1454 1464 1474 1476 1479 1484 1486 1488 1490 1493 1496 1497 1504 1512 1512 1510 1512 1514 1515 1519 1522 1520 1519 1520 1523 1528 1529 1525 1525 1528 1530 1533 1534 1537 1537 1537 1542 1543 1534 1537 1544 1532 1513 1506 1506 1509 1509 1505 1504 1504 1504 1504 1505 1506 1507 1507 1510
1371 1375 1378 1381 1383 1386 1389 1391 1392 1395 1397 1399 1401 1407 1411 1416 1423 1435 1443 1430 1410 1407 1411 1416 1422 1425 1430 1439 1444 1446 1449 1452 1459 1468 1475 1478 1480 1483 1486 1488 1491 1496 1500 1501 1507 1512 1511 1511 1512 1514 1517 1518 1517 1517 1517 1521 1525 1527 1527 1527 1530 1533 1533 1536 1538 1537 1541 1548 1545 1534 1535 1542 1531 1511 1506 1507 1506 1506 1503 1500 1499 1498 1499 1501 1501 1503 1503 1505
1370 1374 1377 1380 1382 1385 1388 1391 1393 1394 1396 1398 1401 1407 1411 1418 1426 1434 1436 1422 1408 1410 1412 1414 1418 1419 1426 1435 1442 1446 1449 1454 1458 1465 1475 1478 1480 1484 1485 1489 1492 1496 1502 1504 1509 1513 1511 1512 1513 1513 1514 1513 1515 1517 1518 1521 1524 1525 1528 1530 1534 1536 1536 1539 1539 1540 1548 1548 1539 1531 1531 1540 1536 1513 1501 1503 1500 1500 1499 1496 1495 1494 1495 1497 1497 1498 1500 1501
1370 1373 1376 1378 1381 1384 1387 1389 1393 1394 1395 1397 1401 1407 1412 1419 1425 1425 1422 1413 1409 1413 1413 1414 1415 1416 1421 1428 1435 1443 1447 1453 1457 1462 1472 1476 1479 1482 1484 1491 1494 1499 1507 1510 1512 1514 1512 1514 1513 1511 1512 1511 1514 1519 1521 1522 1523 1525 1527 1530 1537 1541 1541 1543 1543 1548 1555 1546 1533 1529 1528 1536 1536 1513 1497 1496 1495 1495 1496 1493 1492 1492 1492 1494 1495 1496 1497 1498
1370 1373 1375 1379 1381 1384 1386 1388 1392 1395 1397 1399 1402 1407 1411 1416 1420 1415 1411 1411 1411 1413 1414 1414 1413 1413 1419 1424 1430 1436 1441 1448 1454 1458 1464 1469 1474 1476 1476 1481 1485 1495 1505 1507 1511 1515 1514 1512 1511 1512 1513 1511 1513 1520 1525 1526 1524 1525 1526 1530 1538 1546 1549 1549 1547 1550 1549 1540 1533 1531 1532 1532 1521 1504 1495 1493 1492 1492 1492 1491 1491 1490 1491 1492 1493 1494 1494 1496
1370 1373 1376 1379 1381 1384 1386 1389 1392 1395 1399 1401 1404 1408 1407 1408 1410 1409 1410 1413 1411 1410 1413 1414 1411 1412 1417 1423 1428 1433 1439 1446 1450 1454 1459 1463 1469 1474 1473 1474 1475 1481 1490 1497 1508 1515 1515 1514 1512 1513 1514 1511 1510 1515 1525 1528 1527 1526 1526 1530 1537 1545 1555 1553 1546 1543 1539 1535 1533 1532 1537 1531 1510 1497 1491 1487 1487 1488 1488 1490 1490 1489 1490 1491 1491 1492 1493 1494
1371 1374 1376 1379 1381 1384 1386 1389 1392 1394 1398 1402 1405 1408 1406 1403 1404 1407 1411 1413 1410 1409 1412 1413 1412 1413 1414 1418 1423 1426 1435 1447 1450 1453 1459 1462 1469 1473 1474 1476 1475 1475 1482 1494 1503 1505 1509 1513 1509 1508 1509 1509 1507 1508 1515 1522 1527 1527 1523 1526 1531 1533 1540 1540 1534 1533 1533 1536 1539 1538 1535 1520 1502 1494 1488 1484 1486 1486 1486 1488 1488 1488 1489 1490 1490 1490 1492 1493
1372 1375 1377 1379 1382 1385 1387 1389 1392 1394 1398 1403 1406 1407 1404 1399 1401 1406 1409 1411 1411 1411 1414 1414 1412 1413 1414 1417 1421 1420 1426 1439 1444 1449 1456 1458 1462 1466 1467 1470 1469 1470 1477 1489 1495 1495 1499 1505 1502 1502 1504 1505 1507 1507 1508 1518 1527 1527 1522 1525 1528 1521 1520 1528 1531 1528 1529 1533 1535 1536 1526 1503 1491 1489 1484 1485 1485 1483 1485 1486 1486 1488 1487 1488 1489 1488 1490 1491
1373 1376 1378 1381 1383 1385 1387 1389 1392 1395 1398 1402 1407 1407 1403 1400 1402 1404 1404 1406 1407 1408 1414 1416 1413 1412 1414 1417 1420 1420 1424 1433 1439 1446 1453 1455 1456 1458 1460 1462 1462 1463 1468 1475 1484 1487 1493 1502 1503 1503 1505 1504 1506 1506 1506 1513 1520 1522 1524 1524 1520 1515 1515 1525 1533 1530 1531 1530 1519 1518 1516 1499 1492 1489 1480 1481 1483 1480 1483 1484 1484 1486 1485 1486 1487 1486 1488 1488
1373 1376 1379 1381 1383 1385 1387 1389 1391 1395 1398 1402 1404 1403 1403 1405 1405 1404 1402 1402 1404 1405 1411 1416 1412 1411 1414 1416 1417 1418 1424 1433 1437 1444 1452 1455 1454 1454 1456 1458 1459 1460 1461 1466 1475 1477 1485 1504 1509 1504 1507 1507 1505 1507 1507 1508 1510 1516 1522 1518 1515 1521 1521 1522 1528 1529 1533 1531 1511 1506 1509 1501 1499 1492 1478 1478 1481 1478 1479 1480 1481 1483 1483 1484 1484 1484 1486 1486
1373 1376 1380 1382 1384 1386 1387 1390 1393 1396 1399 1403 1403 1402 1405 1407 1405 1404 1403 1402 1402 1405 1410 1415 1413 1414 1416 1416 1416 1416 1418 1428 1435 1440 1449 1453 1450 1449 1451 1454 1455 1457 1457 1462 1471 1472 1478 1502 1514 1507 1507 1509 1506 1509 1511 1510 1509 1512 1515 1511 1514 1525 1526 1523 1527 1527 1528 1528 1513 1503 1504 1499 1495 1488 1478 1478 1478 1476 1477 1477 1478 1479 1480 1482 1483 1484 1485 1485
1373 1377 1381 1383 1385 1387 1389 1391 1395 1398 1402 1403 1401 1401 1404 1406 1405 1405 1404 1403 1403 1404 1409 1413 1415 1419 1420 1416 1416 1416 1413 1419 1428 1433 1440 1445 1443 1442 1444 1447 1451 1454 1456 1459 1465 1468 1470 1489 1509 1510 1506 1508 1509 1509 1511 1511 1511 1513 1513 1511 1511 1515 1517 1516 1517 1516 1518 1521 1513 1506 1504 1494 1481 1475 1474 1475 1474 1474 1475 1475 1476 1476 1478 1481 1482 1483 1484 1484
1373 1377 1382 1384 1385 1388 1390 1392 1396 1400 1402 1401 1399 1400 1403 1405 1405 1405 1405 1404 1405 1405 1406 1410 1414 1420 1422 1419 1418 1416 1411 1414 1422 1425 1429 1433 1435 1437 1438 1441 1446 1451 1456 1458 1461 1467 1467 1476 1499 1511 1508 1509 1508 1504 1502 1502 1507 1512 1513 1512 1512 1513 1514 1513 1510 1508 1512 1514 1509 1506 1501 1483 1468 1467 1468 1468 1469 1470 1471 1473 1474 1475 1477 1479 1481 1482 1482 1482
1372 1377 1382 1385 1386 1389 1391 1394 1397 1399 1400 1398 1398 1400 1402 1403 1404 1405 1406 1406 1407 1407 1405 1408 1413 1418 1421 1422 1419 1416 1412 1414 1418 1420 1424 1427 1430 1433 1433 1434 1440 1446 1453 1458 1460 1464 1466 1471 1490 1507 1509 1506 1502 1499 1499 1500 1501 1504 1507 1507 1509 1511 1514 1518 1515 1507 1507 1510 1505 1505 1501 1480 1465 1465 1465 1465 1467 1468 1469 1471 1472 1474 1476 1478 1479 1480 1481 1481
1373 1377 1382 1385 1387 1389 1392 1394 1396 1397 1397 1396 1396 1398 1400 1401 1403 1405 1407 1407 1409 1409 1408 1408 1411 1416 1421 1422 1419 1416 1414 1414 1417 1418 1420 1421 1422 1423 1425 1429 1437 1443 1449 1454 1457 1459 1461 1470 1487 1500 1502 1501 1500 1501 1503 1503 1500 1501 1504 1503 1503 1506 1508 1513 1513 1506 1507 1510 1506 1509 1507 1485 1466 1465 1465 1465 1467 1468 1470 1472 1472 1474 1476 1477 1478 1479 1480 1480
1374 1378 1383 1385 1388 1391 1393 1396 1397 1397 1396 1395 1396 1397 1398 1400 1403 1405 1407 1410 1411 1411 1412 1411 1411 1414 1419 1420 1420 1418 1415 1415 1415 1414 1415 1418 1419 1420 1423 1428 1434 1440 1445 1450 1455 1458 1461 1470 1486 1498 1501 1500 1501 1502 1502 1504 1504 1502 1501 1498 1498 1499 1497 1500 1503 1502 1506 1507 1505 1512 1510 1486 1468 1467 1467 1467 1468 1470 1471 1472 1473 1474 1475 1476 1477 1477 1478 1479
1375 1380 1384 1387 1390 1392 1393 1394 1395 1395 1395 1394 1396 1398 1399 1400 1402 1405 1407 1410 1411 1412 1414 1414 1412 1413 1415 1418 1421 1420 1417 1417 1416 1414 1415 1417 1419 1421 1423 1427 1432 1436 1438 1442 1446 1452 1459 1467 1479 1496 1506 1508 1507 1507 1506 1506 1503 1497 1493 1492 1493 1493 1494 1500 1503 1503 1505 1502 1500 1507 1501 1479 1469 1470 1469 1469 1470 1470 1472 1472 1473 1474 1475 1475 1476 1477 1478 1478
1375 1382 1387 1389 1391 1393 1393 1391 1391 1392 1393 1395 1397 1398 1400 1400 1401 1403 1406 1408 1410 1412 1414 1414 1413 1414 1414 1416 1420 1421 1419 1418 1417 1417 1417 1418 1421 1423 1424 1428 1432 1432 1434 1439 1443 1448 1456 1462 1469 1481 1494 1499 1497 1494 1490 1489 1492 1492 1491 1492 1494 1494 1495 1500 1504 1508 1507 1499 1496 1500 1490 1472 1469 1471 1470 1470 1470 1470 1471 1473 1473 1473 1474 1475 1475 1476 1477 1477
1373 1380 1387 1391 1393 1393 1392 1391 1390 1391 1393 1396 1397 1398 1400 1401 1400 1402 1405 1407 1409 1411 1413 1414 1414 1415 1416 1416 1420 1424 1422 1420 1420 1418 1417 1420 1424 1423 1423 1427 1430 1432 1436 1441 1445 1449 1456 1460 1462 1466 1471 1473 1475 1473 1470 1474 1484 1492 1493 1492 1494 1496 1495 1498 1504 1504 1499 1496 1495 1491 1481 1473 1471 1471 1469 1469 1469 1470 1470 1471 1473 1473 1473 1474 1475 1476 1477 1477
1373 1376 1381 1386 1390 1393 1393 1392 1391 1390 1391 1393 1395 1395 1397 1399 1399 1401 1404 1407 1408 1410 1413 1414 1415 1417 1418 1417 1420 1425 1425 1425 1424 1420 1419 1422 1423 1421 1422 1426 1430 1434 1438 1442 1445 1449 1456 1460 1460 1461 1462 1461 1464 1466 1468 1472 1480 1486 1490 1491 1492 1494 1495 1498 1499 1491 1487 1495 1493 1476 1471 1474 1470 1467 1468 1466 1467 1469 1469 1470 1472 1472 1472 1473 1474 1475 1477 1477
1373 1375 1376 1377 1381 1386 1389 1389 1388 1388 1389 1391 1391 1392 1394 1396 1398 1400 1402 1405 1407 1408 1412 1415 1416 1417 1417 1417 1419 1421 1424 1428 1429 1424 1421 1423 1423 1422 1425 1429 1432 1434 1438 1443 1445 1447 1455 1460 1458 1459 1462 1461 1462 1465 1466 1469 1473 1477 1484 1488 1489 1491 1494 1495 1492 1482 1482 1489 1479 1464 1465 1469 1465 1464 1465 1463 1464 1467 1467 1469 1470 1471 1472 1473 1474 1475 1476 1477
1373 1375 1377 1378 1377 1379 1382 1384 1386 1389 1390 1391 1392 1392 1392 1394 1396 1397 1399 1403 1406 1407 1409 1411 1412 1414 1416 1417 1418 1419 1420 1422 1426 1426 1423 1423 1423 1422 1425 1431 1434 1434 1437 1443 1444 1445 1452 1456 1454 1458 1462 1462 1465 1465 1463 1466 1470 1474 1478 1481 1483 1486 1486 1487 1485 1479 1479 1478 1467 1462 1465 1462 1459 1462 1462 1461 1464 1465 1466 1468 1469 1470 1471 1472 1473 1474 1474 1476
1375 1375 1377 1379 1379 1379 1381 1385 1389 1392 1392 1393 1394 1393 1392 1393 1394 1394 1396 1400 1403 1405 1406 1407 1408 1410 1413 1416 1418 1417 1413 1412 1416 1419 1420 1421 1420 1419 1421 1424 1427 1430 1434 1440 1442 1443 1448 1450 1450 1456 1461 1462 1465 1466 1463 1464 1467 1470 1474 1475 1478 1481 1482 1482 1477 1472 1476 1476 1467 1467 1469 1460 1456 1460 1460 1461 1464 1464 1465 1467 1468 1469 1471 1471 1472 1472 1472 1474
1376 1376 1376 1379 1380 1380 1383 1386 1389 1392 1392 1393 1393 1391 1392 1391 1389 1391 1394 1395 1398 1401 1401 1402 1404 1406 1410 1413 1414 1412 1410 1411 1414 1415 1416 1417 1414 1413 1413 1413 1418 1425 1431 1436 1439 1440 1444 1446 1447 1454 1460 1460 1462 1467 1467 1464 1465 1470 1472 1471 1473 1474 1472 1470 1466 1465 1472 1473 1470 1473 1469 1455 1452 1458 1460 1460 1462 1463 1464 1464 1465 1467 1468 1469 1469 1470 1470 1471
1376 1377 1377 1379 1380 1381 1383 1385 1388 1391 1391 1390 1389 1389 1389 1387 1386 1390 1394 1394 1394 1396 1397 1398 1401 1405 1409 1409 1406 1405 1410 1415 1416 1416 1417 1417 1415 1414 1412 1411 1413 1417 1423 1430 1435 1437 1441 1444 1445 1451 1456 1456 1460 1466 1467 1468 1473 1472 1462 1456 1457 1459 1461 1464 1463 1462 1464 1463 1465 1466 1455 1446 1450 1456 1457 1458 1460 1460 1460 1460 1463 1465 1465 1466 1466 1467 1467 1467